THORAD DELTA 1 DEB, 8403

Orbit data source: Space-Track

THORAD DELTA 1 DEB, 8403 is space debris in SSO originally from a launch on Fri, 15 Nov 1974 UTC launched from the Air Force Western Test Range (AFWTR). Debris objects in space refer to the collection of defunct objects orbiting the Earth. Examples of debris include non-operational satellites, rocket bodies, and fragments generated from explosions, collisions, or faulty payload assembly.

Loading next visibility...
Identifier
8403, 1974-089CF
Orbit
SSO
Country
Flag of USUS
Related business
Manufacturer
Unknown
Mission
Spacecraft
Bus & Motor
Unknown
Mass
Unknown
Launch date (UTC)
1974-11-15 (51 years ago)
Launch vehicle
Unknown
Launch site
Air Force Western Test Range (AFWTR)
Object type
Payload
Rocket body
Debris
Shape & HBR
Unknown shape, 0.1 m
Radar Cross Section
Small (<0.1 m²)

Expand to show TLE details & history
Last TLE update: 14 hours ago

TLE from 14 hours ago
0 THORAD DELTA 1 DEB
1 08403U 74089CF  26062.75577692  .00000036  00000-0  53713-3 0  9998
2 08403 101.5371 165.6943 0055891 241.8174 274.4957 12.47064899336352
Epoch: 2026-03-03T18:08Z
TLE epoch observation values (Epoch: 2026-03-03T18:08:19.125Z)
Latitude
23.8266°
Longitude
-82.76922°
Altitude
1,476.183 km
Speed
7.129 km/s
True Right ascension
23h 23m 21s
True Declination
23° 42' 41"
Sunlit
Object was in daylight at epoch
Visualization orbit readout
Latitude
Unknown
Longitude
Unknown
Altitude
Unknown
Speed
Unknown
Apparent Right ascension
Unknown
Apparent Declination
Unknown
Sunlit
N/A
Visualization observer readout
Local Sidereal Time
11:33:22
Azimuth
Unknown
Elevation
Unknown
Doppler factor
Unknown
Orbital elements
Apogee altitude
1,518.222 km
Perigee altitude
1,430.446 km
Semi-major axis
7,852.471 km
Eccentricity
0.00559
Inclination
101.5371°
RAAN
165.6943°
Arg. of periapsis
241.8174°
True anomaly
273.85687°
Mean anomaly
274.4957°
Eccentric anomaly
274.17632°
Mean motion
3.11913 °/min
Orbital period
115.42 mins
BSTAR
0.00053713

Documentation

Showing up to 5 results
|